FW0190 Weather Reports


time (UTC)temp
C
wind
direction
speed
KPH
gust
KPH
rain 1hr
cm
rain 24hr
cm
rain mn
cm
humidity
%
barometer
mb
20260905224620 40 267 0.0 1.6 0.00 0.33 0.33 43 1012.4
20260905224119 40 283 0.0 0.0 0.00 0.33 0.33 43 1012.3
20260905223616 40 291 1.6 3.2 0.00 0.33 0.33 42 1012.6
20260905223113 41 261 0.0 0.0 0.00 0.33 0.33 41 1012.7
20260905222612 42 253 0.0 1.6 0.00 0.33 0.33 39 1012.4
20260905222107 43 256 0.0 1.6 0.00 0.33 0.33 38 1012.5
20260905221603 44 258 1.6 3.2 0.00 0.33 0.33 37 1012.5
20260905221059 44 318 1.6 3.2 0.00 0.33 0.33 38 1012.3
20260905220554 45 268 1.6 1.6 0.00 0.33 0.33 37 1012.3
20260905220051 46 293 1.6 3.2 0.00 0.33 0.33 35 1012.5
20260905215550 47 319 1.6 3.2 0.00 0.33 0.33 34 1012.2
20260905215046 46 327 0.0 4.8 0.00 0.33 0.33 35 1012.5
20260905214542 46 267 1.6 4.8 0.00 0.33 0.33 35 1012.4
20260905214037 46 251 0.0 0.0 0.00 0.33 0.33 37 1012.6
20260905213532 45 255 0.0 0.0 0.00 0.33 0.33 39 1012.4
20260905213027 43 269 0.0 1.6 0.00 0.33 0.33 41 1012.5
20260905212522 41 257 0.0 0.0 0.00 0.33 0.33 45 1012.5
20260905212021 38 263 0.0 1.6 0.00 0.33 0.33 51 1012.5
20260905211517 36 245 0.0 1.6 0.00 0.33 0.33 54 1012.6
20260905211013 34 254 0.0 1.6 0.00 0.33 0.33 61 1012.7
20260905210508 33 257 0.0 1.6 0.00 0.33 0.33 62 1012.4
20260905210009 33 242 0.0 1.6 0.00 0.33 0.33 63 1012.8
20260905205508 32 257 0.0 1.6 0.00 0.33 0.33 64 1012.8
20260905205007 31 243 0.0 1.6 0.00 0.33 0.33 65 1013.0
20260905204503 31 236 0.0 1.6 0.00 0.33 0.33 68 1013.1
20260905204002 30 190 4.8 4.8 0.00 0.33 0.33 71 1013.1
20260905203458 30 253 0.0 1.6 0.00 0.33 0.33 70 1013.2
20260905202953 29 239 0.0 3.2 0.00 0.33 0.33 72 1013.2
20260905202448 29 242 0.0 0.0 0.00 0.33 0.33 72 1013.3
20260905201943 29 254 0.0 0.0 0.00 0.33 0.33 72 1013.2
20260905201438 28 351 1.6 3.2 0.00 0.33 0.33 71 1013.2
20260905200933 28 251 0.0 1.6 0.00 0.33 0.33 72 1013.4
20260905200429 28 272 0.0 1.6 0.00 0.33 0.33 72 1013.5
20260905195926 28 265 0.0 1.6 0.00 0.33 0.33 72 1013.3
20260905195417 28 252 0.0 0.0 0.00 0.33 0.33 71 1013.5
20260905194912 27 250 0.0 9.7 0.00 0.33 0.33 72 1013.8
20260905194412 27 274 0.0 1.6 0.00 0.33 0.33 72 1013.6
20260905193911 27 257 0.0 9.7 0.18 0.33 0.33 72 1013.7
20260905193406 27 90 1.6 20.9 1.85 0.33 0.33 69 1013.9
20260905192902 30 97 4.8 11.3 1.68 0.28 0.28 64 1014.1
20260905192357 31 18 3.2 12.9 0.13 0.03 0.03 58 1014.4
20260905191857 32 76 3.2 20.9 0.00 0.00 0.00 55 1014.2
20260905191356 34 45 11.3 14.5 0.00 0.00 0.00 52 1014.0
20260905190856 36 323 11.3 16.1 0.00 0.00 0.00 46 1014.0
20260905190354 37 359 11.3 20.9 0.00 0.00 0.00 43 1013.9
20260905185853 37 282 1.6 3.2 0.00 0.00 0.00 44 1013.4
20260905185348 37 295 3.2 4.8 0.00 0.00 0.00 45 1013.3
20260905184847 37 310 4.8 11.3 0.00 0.00 0.00 45 1013.5
20260905184347 36 344 4.8 9.7 0.00 0.00 0.00 45 1013.6
20260905183840 36 193 3.2 4.8 0.00 0.00 0.00 45 1013.6
20260905183335 36 252 1.6 3.2 0.00 0.00 0.00 46 1013.7
20260905182830 36 247 1.6 6.4 0.00 0.00 0.00 47 1013.7
20260905182329 35 16 3.2 4.8 0.00 0.00 0.00 47 1013.6
20260905181825 35 270 8.0 9.7 0.00 0.00 0.00 47 1013.9
20260905181324 35 56 9.7 12.9 0.00 0.00 0.00 48 1013.7
20260905180823 35 249 0.0 3.2 0.00 0.00 0.00 50 1013.9
20260905180319 35 239 6.4 11.3 0.00 0.00 0.00 50 1014.0
20260905175814 35 357 6.4 9.7 0.00 0.00 0.00 51 1014.2
20260905175308 35 208 3.2 4.8 0.00 0.00 0.00 51 1014.1
20260905174803 35 353 8.0 9.7 0.00 0.00 0.00 52 1014.2
20260905174259 35 275 3.2 6.4 0.00 0.00 0.00 52 1014.2
20260905173755 34 239 0.0 1.6 0.00 0.00 0.00 53 1014.0
20260905173251 34 251 4.8 6.4 0.00 0.00 0.00 53 1014.1
20260905172750 34 249 0.0 1.6 0.00 0.00 0.00 54 1014.2
20260905172249 34 301 3.2 4.8 0.00 0.00 0.00 54 1014.3
20260905171745 33 291 3.2 3.2 0.00 0.00 0.00 55 1014.1
20260905171241 33 15 1.6 3.2 0.00 0.00 0.00 55 1014.4
20260905170738 33 313 3.2 4.8 0.00 0.00 0.00 55 1014.5
20260905170233 33 237 1.6 4.8 0.00 0.00 0.00 55 1014.3
20260905165732 33 240 1.6 3.2 0.00 0.00 0.00 54 1014.6
20260905165228 33 249 0.0 3.2 0.00 0.00 0.00 55 1014.5
20260905164727 33 246 1.6 6.4 0.00 0.00 0.00 55 1014.8
20260905164222 33 241 1.6 4.8 0.00 0.00 0.00 55 1014.9
20260905163718 33 251 0.0 0.0 0.00 0.00 0.00 55 1014.6
20260905163214 33 235 0.0 0.0 0.00 0.00 0.00 56 1014.8
20260905162711 33 235 0.0 0.0 0.00 0.00 0.00 56 1014.8
20260905162210 33 235 0.0 0.0 0.00 0.00 0.00 56 1015.0
20260905161705 33 235 0.0 0.0 0.00 0.00 0.00 56 1015.0
20260905161203 32 235 0.0 0.0 0.00 0.00 0.00 56 1014.9
20260905160702 32 301 1.6 1.6 0.00 0.00 0.00 57 1014.8
20260905160156 32 244 3.2 3.2 0.00 0.00 0.00 59 1014.8
20260905155655 32 218 1.6 1.6 0.00 0.00 0.00 59 1014.9
20260905155155 32 218 1.6 1.6 0.00 0.00 0.00 59 1014.9
20260905154644 32 218 1.6 1.6 0.00 0.00 0.00 59 1015.0
20260905154139 32 218 1.6 1.6 0.00 0.00 0.00 59 1015.0
20260905153635 32 218 1.6 1.6 0.00 0.00 0.00 60 1015.1
20260905153131 31 218 1.6 1.6 0.00 0.00 0.00 61 1014.9
20260905152625 31 218 1.6 1.6 0.00 0.00 0.00 60 1014.9
20260905152120 31 218 1.6 1.6 0.00 0.00 0.00 63 1015.0
20260905151615 31 218 1.6 1.6 0.00 0.00 0.00 63 1015.1
20260905151111 31 218 1.6 1.6 0.00 0.00 0.00 63 1015.2
20260905150606 31 260 1.6 4.8 0.00 0.00 0.00 63 1015.2
20260905145557 30 266 1.6 1.6 0.00 0.00 0.00 67 1015.0
20260905145056 30 266 1.6 1.6 0.00 0.00 0.00 69 1015.1
20260905144551 29 266 1.6 1.6 0.00 0.00 0.00 71 1015.1
20260905144049 29 266 1.6 1.6 0.00 0.00 0.00 72 1014.9
20260905143544 29 266 1.6 1.6 0.00 0.00 0.00 72 1015.0
20260905143039 28 266 1.6 1.6 0.00 0.00 0.00 72 1014.9
20260905142538 28 233 0.0 1.6 0.00 0.00 0.00 74 1015.0
20260905142032 28 263 0.0 1.6 0.00 0.00 0.00 74 1015.1
20260905141527 28 236 0.0 1.6 0.00 0.00 0.00 74 1015.0
20260905141023 27 253 0.0 1.6 0.00 0.00 0.00 77 1015.1
20260905140518 27 252 0.0 0.0 0.00 0.00 0.00 77 1015.1
20260905140017 27 254 0.0 0.0 0.00 0.00 0.00 78 1015.2
20260905135513 27 266 0.0 0.0 0.00 0.00 0.00 78 1015.2
20260905135008 27 248 0.0 0.0 0.00 0.00 0.00 79 1015.1
20260905134508 26 237 0.0 0.0 0.00 0.00 0.00 80 1015.2
20260905134007 26 245 0.0 0.0 0.00 0.00 0.00 81 1015.3
20260905133502 26 248 0.0 0.0 0.00 0.00 0.00 81 1015.4
20260905133001 26 247 0.0 0.0 0.00 0.00 0.00 81 1015.3
20260905132456 26 277 0.0 0.0 0.00 0.00 0.00 82 1015.3
20260905131951 26 247 0.0 0.0 0.00 0.00 0.00 82 1015.3
20260905131448 25 246 0.0 0.0 0.00 0.00 0.00 83 1015.4
20260905130948 25 244 0.0 0.0 0.00 0.00 0.00 84 1015.3
20260905130441 25 275 0.0 0.0 0.00 0.00 0.00 84 1015.3
20260905125941 25 257 0.0 0.0 0.00 0.00 0.00 84 1015.3
20260905125436 25 247 0.0 0.0 0.00 0.00 0.00 84 1015.3
20260905124931 24 246 0.0 0.0 0.00 0.00 0.00 84 1015.1
20260905124428 24 245 0.0 0.0 0.00 0.00 0.00 85 1015.2
20260905123928 24 245 0.0 0.0 0.00 0.00 0.00 85 1015.4
20260905123424 24 246 0.0 0.0 0.00 0.00 0.00 85 1015.2
20260905122915 24 250 0.0 0.0 0.00 0.00 0.00 85 1015.2
20260905122414 23 250 0.0 0.0 0.00 0.00 0.00 85 1015.0
20260905121909 23 250 0.0 0.0 0.00 0.00 0.00 85 1015.1
20260905121405 23 250 0.0 0.0 0.00 0.00 0.00 85 1015.1
20260905120903 23 250 0.0 0.0 0.00 0.00 0.00 84 1015.0
20260905120358 23 246 0.0 0.0 0.00 0.00 0.00 84 1014.8
20260905115853 23 246 0.0 0.0 0.00 0.00 0.00 84 1015.0
20260905115352 23 252 0.0 0.0 0.00 0.00 0.00 84 1015.0
20260905114847 23 252 0.0 0.0 0.00 0.00 0.00 84 1014.9
20260905114346 23 252 0.0 0.0 0.00 0.00 0.00 84 1015.0
20260905113845 23 247 0.0 0.0 0.00 0.00 0.00 84 1014.9
20260905113341 23 249 0.0 0.0 0.00 0.00 0.00 83 1015.0
20260905112836 23 249 0.0 0.0 0.00 0.00 0.00 83 1014.8
20260905112332 23 249 0.0 0.0 0.00 0.00 0.00 83 1014.8
20260905111827 23 253 0.0 0.0 0.00 0.00 0.00 83 1014.8
20260905111327 23 255 0.0 0.0 0.00 0.00 0.00 83 1014.8
20260905110826 23 254 0.0 0.0 0.00 0.00 0.00 83 1014.9
20260905110319 24 252 0.0 0.0 0.00 0.00 0.00 83 1014.6
20260905105815 24 252 0.0 0.0 0.00 0.00 0.00 83 1014.8
20260905105314 24 252 0.0 0.0 0.00 0.00 0.00 83 1014.5
20260905104808 24 252 0.0 0.0 0.00 0.00 0.00 83 1014.4
20260905104306 24 252 0.0 0.0 0.00 0.00 0.00 83 1014.4
20260905103805 24 251 0.0 0.0 0.00 0.00 0.00 83 1014.5
20260905103300 24 251 0.0 0.0 0.00 0.00 0.00 83 1014.8
20260905102756 24 253 0.0 0.0 0.00 0.00 0.00 82 1014.8
20260905102253 24 255 0.0 0.0 0.00 0.00 0.00 82 1014.8
20260905101752 24 255 0.0 0.0 0.00 0.00 0.00 82 1014.5
20260905101251 24 244 0.0 0.0 0.00 0.00 0.00 82 1014.4
20260905100745 24 243 0.0 0.0 0.00 0.00 0.00 82 1014.6
20260905100242 24 245 0.0 0.0 0.00 0.00 0.00 82 1014.5
20260905095741 24 251 0.0 0.0 0.00 0.00 0.00 82 1014.5
20260905095240 24 254 0.0 0.0 0.00 0.00 0.00 82 1014.3
20260905094735 24 251 0.0 0.0 0.00 0.00 0.00 82 1014.5
20260905094230 24 246 0.0 0.0 0.00 0.00 0.00 81 1014.5
20260905093725 24 245 0.0 0.0 0.00 0.00 0.00 81 1014.3
20260905093221 24 242 0.0 0.0 0.00 0.00 0.00 81 1014.6
20260905092716 24 243 0.0 0.0 0.00 0.00 0.00 81 1014.2
20260905092211 24 251 0.0 0.0 0.00 0.00 0.00 81 1014.4
20260905091710 24 251 0.0 0.0 0.00 0.00 0.00 81 1014.2
20260905091206 24 251 0.0 0.0 0.00 0.00 0.00 81 1014.3
20260905090704 24 251 0.0 0.0 0.00 0.00 0.00 81 1014.1
20260905090201 25 251 0.0 0.0 0.00 0.00 0.00 81 1014.2
20260905085659 24 251 0.0 0.0 0.00 0.00 0.00 81 1014.1
20260905085155 24 251 0.0 0.0 0.00 0.00 0.00 81 1014.2
20260905084654 25 252 0.0 0.0 0.00 0.00 0.00 80 1014.1
20260905084149 25 255 0.0 0.0 0.00 0.00 0.00 80 1014.2
20260905083643 25 254 0.0 0.0 0.00 0.00 0.00 80 1014.3
20260905083140 25 251 0.0 0.0 0.00 0.00 0.00 80 1014.4
20260905082635 25 251 0.0 0.0 0.00 0.00 0.00 80 1014.4
20260905082126 25 251 0.0 0.0 0.00 0.00 0.00 80 1014.4
20260905081626 25 251 0.0 0.0 0.00 0.00 0.00 80 1014.4
20260905081125 25 256 0.0 0.0 0.00 0.00 0.00 79 1014.6
20260905080620 25 257 0.0 0.0 0.00 0.00 0.00 79 1014.4
20260905080115 25 259 0.0 0.0 0.00 0.00 0.00 79 1014.5
20260905075614 25 260 0.0 0.0 0.00 0.00 0.00 79 1014.6
20260905075113 25 251 0.0 0.0 0.00 0.00 0.00 80 1014.5
20260905074613 25 254 0.0 0.0 0.00 0.00 0.00 80 1014.5
20260905074109 25 257 0.0 0.0 0.00 0.00 0.00 80 1014.6
20260905073604 25 260 0.0 0.0 0.00 0.00 0.00 80 1014.4
20260905073059 25 261 0.0 0.0 0.00 0.00 0.00 80 1014.4
20260905072558 25 257 0.0 0.0 0.00 0.00 0.00 80 1014.4
20260905072054 25 258 0.0 0.0 0.00 0.00 0.00 80 1014.2
20260905071552 25 257 0.0 0.0 0.00 0.00 0.00 81 1014.5
20260905071052 25 257 0.0 0.0 0.00 0.00 0.00 81 1014.6
20260905070547 25 256 0.0 0.0 0.00 0.00 0.00 81 1014.4
20260905070043 25 256 0.0 0.0 0.00 0.00 0.00 81 1014.4
20260905065540 25 254 0.0 0.0 0.00 0.00 0.00 81 1014.4
20260905065036 25 250 0.0 0.0 0.00 0.00 0.00 81 1014.4
20260905064536 25 248 0.0 0.0 0.00 0.00 0.00 81 1014.4
20260905064031 25 253 0.0 0.0 0.00 0.00 0.00 81 1014.6
20260905063530 25 257 0.0 0.0 0.00 0.00 0.00 81 1014.5
20260905063027 25 257 0.0 0.0 0.00 0.00 0.00 81 1014.8
20260905062527 25 250 0.0 0.0 0.00 0.00 0.00 81 1014.8
20260905062027 25 259 0.0 0.0 0.00 0.00 0.00 81 1014.8
20260905061522 25 257 0.0 0.0 0.00 0.00 0.00 81 1014.8
20260905061021 25 257 0.0 0.0 0.00 0.00 0.00 81 1014.6
20260905060517 25 257 0.0 0.0 0.00 0.00 0.00 81 1014.6
20260905060013 25 255 0.0 0.0 0.00 0.00 0.00 81 1014.9
20260905055511 25 254 0.0 0.0 0.00 0.00 0.00 81 1015.0
20260905055006 25 239 0.0 0.0 0.00 0.00 0.00 80 1014.9
20260905054502 25 220 1.6 1.6 0.00 0.00 0.00 80 1015.0
20260905053957 25 245 0.0 0.0 0.00 0.00 0.00 80 1014.8
20260905053451 25 250 0.0 0.0 0.00 0.00 0.00 79 1014.8
20260905052947 25 250 0.0 0.0 0.00 0.00 0.00 79 1014.8
20260905052447 25 246 0.0 0.0 0.00 0.00 0.00 79 1015.0
20260905051946 25 251 0.0 0.0 0.00 0.00 0.00 79 1014.8
20260905051441 26 251 0.0 0.0 0.00 0.00 0.00 79 1014.6
20260905050939 26 254 0.0 0.0 0.00 0.00 0.00 78 1014.8
20260905050434 26 254 0.0 0.0 0.00 0.00 0.00 78 1014.8
20260905045930 26 247 0.0 0.0 0.00 0.00 0.00 78 1014.9
20260905045420 26 243 0.0 0.0 0.00 0.00 0.00 78 1014.8
20260905044915 26 247 0.0 0.0 0.00 0.00 0.00 77 1014.8
20260905044410 26 236 0.0 0.0 0.00 0.00 0.00 77 1015.0
20260905043909 26 243 0.0 0.0 0.00 0.00 0.00 77 1014.9
20260905043403 26 243 0.0 0.0 0.00 0.00 0.00 76 1015.0
20260905042903 26 253 0.0 0.0 0.00 0.00 0.00 76 1015.1
20260905042358 26 259 0.0 0.0 0.00 0.00 0.00 75 1015.1
20260905041852 26 256 0.0 0.0 0.00 0.00 0.00 75 1015.0
20260905041349 27 256 0.0 0.0 0.00 0.00 0.00 75 1015.2
20260905040844 27 256 0.0 0.0 0.00 0.00 0.00 75 1015.1
20260905040342 27 255 0.0 0.0 0.00 0.00 0.00 74 1015.0
20260905035842 27 255 0.0 0.0 0.00 0.00 0.00 74 1015.0
20260905035338 27 255 0.0 0.0 0.00 0.00 0.00 74 1014.8
20260905034834 27 266 0.0 0.0 0.00 0.00 0.00 74 1015.0
20260905034330 27 272 0.0 0.0 0.00 0.00 0.00 73 1014.9
20260905033828 27 251 0.0 0.0 0.00 0.00 0.00 72 1015.1
20260905033323 27 251 0.0 0.0 0.00 0.00 0.00 72 1014.9
20260905032823 27 255 0.0 0.0 0.00 0.00 0.00 71 1015.0
20260905032318 27 254 0.0 0.0 0.00 0.00 0.00 71 1015.1
20260905031813 27 250 0.0 0.0 0.00 0.00 0.00 70 1014.8
20260905031309 27 250 0.0 0.0 0.00 0.00 0.00 70 1015.1
20260905030804 27 255 0.0 0.0 0.00 0.00 0.00 70 1014.9
20260905030300 27 255 0.0 0.0 0.00 0.00 0.00 69 1014.9
20260905025759 28 249 0.0 0.0 0.00 0.00 0.00 69 1014.9
20260905025255 28 248 0.0 0.0 0.00 0.00 0.00 69 1014.9
20260905024750 28 247 0.0 0.0 0.00 0.00 0.00 68 1014.6
20260905024246 28 242 0.0 0.0 0.00 0.00 0.00 68 1014.9
20260905023741 28 240 0.0 0.0 0.00 0.00 0.00 67 1014.6
20260905023236 28 255 0.0 0.0 0.00 0.00 0.00 67 1014.8
20260905022735 28 250 0.0 0.0 0.00 0.00 0.00 67 1014.5
20260905022231 28 250 0.0 0.0 0.00 0.00 0.00 66 1014.5
20260905021730 28 249 0.0 0.0 0.00 0.00 0.00 65 1014.5
20260905021225 29 248 0.0 0.0 0.00 0.00 0.00 64 1014.6
20260905020720 29 237 0.0 1.6 0.00 0.00 0.00 64 1014.6
20260905020216 29 259 0.0 0.0 0.00 0.00 0.00 63 1014.6
20260905015714 30 259 0.0 0.0 0.00 0.00 0.00 63 1014.4
20260905015214 30 247 0.0 0.0 0.00 0.00 0.00 62 1014.5
20260905014713 30 246 0.0 0.0 0.00 0.00 0.00 62 1014.4
20260905014209 30 247 0.0 0.0 0.00 0.00 0.00 62 1014.3
20260905013705 30 247 0.0 0.0 0.00 0.00 0.00 61 1014.4
20260905013200 30 245 0.0 0.0 0.00 0.00 0.00 60 1014.4
20260905012655 31 248 0.0 0.0 0.00 0.00 0.00 59 1014.3
20260905012151 31 247 0.0 0.0 0.00 0.00 0.00 58 1014.2
20260905011648 31 244 0.0 0.0 0.00 0.00 0.00 58 1014.2
20260905011138 31 244 0.0 0.0 0.00 0.00 0.00 59 1014.1
20260905010638 32 245 0.0 0.0 0.00 0.00 0.00 58 1014.1
20260905010129 32 249 0.0 0.0 0.00 0.00 0.00 57 1014.0
20260905005624 32 252 0.0 0.0 0.00 0.00 0.00 55 1013.9
20260905005119 33 252 0.0 0.0 0.00 0.00 0.00 53 1014.1
20260905004613 33 252 0.0 0.0 0.00 0.00 0.00 51 1014.0
20260905004108 33 260 0.0 0.0 0.00 0.00 0.00 50 1014.1
20260905003604 33 258 0.0 0.0 0.00 0.00 0.00 49 1014.1
20260905003100 34 251 0.0 0.0 0.00 0.00 0.00 48 1013.9
20260905002555 35 257 0.0 0.0 0.00 0.00 0.00 47 1014.0
20260905002049 35 259 0.0 0.0 0.00 0.00 0.00 45 1013.8
20260905001544 36 254 0.0 0.0 0.00 0.00 0.00 44 1013.9
20260905001038 37 254 0.0 0.0 0.00 0.00 0.00 43 1014.1
20260905000534 37 255 0.0 0.0 0.00 0.00 0.00 42 1013.9
20260905000030 38 254 0.0 0.0 0.00 0.00 0.00 40 1013.8
20260904235525 38 255 0.0 0.0 0.00 0.00 0.00 39 1014.0
20260904235024 40 254 0.0 0.0 0.00 0.00 0.00 37 1013.9
20260904234518 41 252 0.0 0.0 0.00 0.00 0.00 35 1013.9
20260904234014 42 249 0.0 0.0 0.00 0.00 0.00 33 1013.9
20260904233509 43 243 0.0 1.6 0.00 0.00 0.00 31 1013.7
20260904233006 44 250 0.0 0.0 0.00 0.00 0.00 31 1013.6
20260904232501 44 252 0.0 0.0 0.00 0.00 0.00 31 1013.4
20260904231958 44 243 0.0 1.6 0.00 0.00 0.00 31 1013.6
20260904231453 43 240 0.0 1.6 0.00 0.00 0.00 31 1013.4
20260904230948 44 207 3.2 3.2 0.00 0.00 0.00 30 1013.5
20260904230447 44 213 1.6 3.2 0.00 0.00 0.00 30 1013.5
20260904225942 45 245 1.6 1.6 0.00 0.00 0.00 29 1013.5
20260904225440 44 244 0.0 1.6 0.00 0.00 0.00 29 1013.6
20260904224934 44 251 1.6 1.6 0.00 0.00 0.00 30 1013.4